Crossville, TN

12:21 PM CST on December 12, 2017 (GMT -0600)
Crossville Memorial-Whitson

Weather History for KCSV - March, 2013

Change the Weather History Date:

Wednesday, March 20, 2013

  Actual Average Record
Temperature  
Mean Temperature 37 °F 48 °F  
Max Temperature 49 °F 59 °F 80 °F (2012)
Min Temperature 24 °F 38 °F 14 °F (1965)
Degree Days  
Heating Degree Days 28    
Month to date heating degree days 477  
Since 1 July heating degree days 3614  
Cooling Degree Days 0    
Month to date cooling degree days 0  
Year to date cooling degree days 0  
Moisture  
Dew Point 21 °F    
Average Humidity 44    
Maximum Humidity 64    
Minimum Humidity 24    
Precipitation  
Precipitation T in 0.16 in 4.37 in (1980)
Month to date precipitation 3.47 3.08  
Year to date precipitation 13.02 12.30  
Sea Level Pressure  
Sea Level Pressure 30.03 in    
Wind  
Wind Speed 8 mph (NW)    
Max Wind Speed 22 mph    
Max Gust Speed 33 mph    
Visibility 8 miles    
Events Snow    
T = Trace of Precipitation, MM = Missing Value Source: NWS Daily Summary

Daily Weather History Graph

Daily Weather History Graph

Search for Another Location

Airport or City:

Trip Planner

Search our weather history database for the weather conditions in past years. The results will help you decide how hot, cold, wet, or windy it might be!

Date:

Astronomy

Mar. 20, 2013 Rise Set
Actual Time 6:43 AM CDT 6:52 PM CDT
Civil Twilight 6:18 AM CDT 7:17 PM CDT
Nautical Twilight 5:48 AM CDT 7:47 PM CDT
Astronomical Twilight 5:18 AM CDT 8:18 PM CDT
Moon 12:36 PM CDT (3/20) 2:12 AM CDT (3/20)
Length of Visible Light 12h 59m
Length of Day
12h 08m
First Quarter, 59% of the Moon is Illuminated
Mar 20
First Quarter
Mar 27
Full
Apr 2
Last Quarter
Apr 10
New
Apr 18
First Quarter

Hourly Weather History & Observations

Time (CDT) Temp. Windchill Dew Point Humidity Pressure Visibility Wind Dir Wind Speed Gust Speed Precip Events Conditions
12:53 AM 39.0 °F - 12.9 °F 34% 30.13 in 10.0 mi Calm Calm - N/A   Overcast
1:53 AM 37.0 °F - 14.0 °F 39% 30.14 in 10.0 mi Calm Calm - N/A   Overcast
2:53 AM 35.1 °F 31.0 °F 15.1 °F 44% 30.12 in 10.0 mi North 4.6 mph - N/A   Partly Cloudy
3:53 AM 35.1 °F 32.2 °F 14.0 °F 42% 30.11 in 10.0 mi NNW 3.5 mph - N/A   Overcast
4:53 AM 33.1 °F 30.0 °F 15.1 °F 48% 30.11 in 10.0 mi NNW 3.5 mph - N/A   Clear
5:53 AM 30.9 °F - 16.0 °F 54% 30.13 in 10.0 mi Calm Calm - N/A   Clear
6:53 AM 28.0 °F - 16.0 °F 61% 30.13 in 10.0 mi Calm Calm - N/A   Clear
7:53 AM 33.1 °F - 18.0 °F 54% 30.14 in 10.0 mi Calm Calm - N/A   Clear
8:53 AM 39.0 °F 35.7 °F 10.9 °F 32% 30.13 in 10.0 mi West 4.6 mph - N/A   Clear
10:53 AM 44.1 °F 38.1 °F 10.0 °F 25% 30.09 in 10.0 mi NW 11.5 mph - N/A   Clear
11:53 AM 46.0 °F 42.5 °F 14.0 °F 28% 30.07 in 10.0 mi WNW 6.9 mph - N/A   Clear
12:53 PM 46.9 °F - 16.0 °F 29% 30.05 in 10.0 mi WNW 11.5 mph 20.7 mph N/A   Clear
1:53 PM 46.9 °F - 12.0 °F 24% 30.02 in 10.0 mi WNW 16.1 mph 26.5 mph N/A   Partly Cloudy
2:53 PM 48.0 °F - 15.1 °F 27% 29.97 in 10.0 mi West 13.8 mph 33.4 mph N/A   Clear
3:53 PM 48.0 °F - 16.0 °F 28% 29.94 in 10.0 mi West 11.5 mph 23.0 mph N/A   Overcast
4:53 PM 44.1 °F 39.0 °F 21.0 °F 40% 29.94 in 10.0 mi West 9.2 mph - N/A   Mostly Cloudy
5:53 PM 39.9 °F 34.5 °F 28.9 °F 65% 29.97 in 10.0 mi WNW 8.1 mph - N/A   Mostly Cloudy
6:04 PM 37.4 °F 27.8 °F 28.4 °F 70% 29.95 in 1.8 mi WNW 17.3 mph 24.2 mph 0.00 in Snow Light Snow
6:18 PM 35.6 °F 28.6 °F 28.4 °F 75% 29.96 in 3.0 mi NW 9.2 mph 19.6 mph 0.00 in Snow Light Snow
6:40 PM 35.6 °F 25.2 °F 28.4 °F 75% 29.98 in 2.0 mi NNW 18.4 mph 26.5 mph 0.00 in Snow Light Snow
6:45 PM 33.8 °F 23.5 °F 28.4 °F 81% 29.98 in 0.8 mi NNW 16.1 mph 26.5 mph 0.00 in Snow Light Snow
6:53 PM 34.0 °F 25.5 °F 30.0 °F 85% 30.02 in 1.0 mi NW 11.5 mph - 0.00 in Snow Light Snow
7:03 PM 33.8 °F 27.7 °F 30.2 °F 87% 29.98 in 2.0 mi NW 6.9 mph - 0.00 in Snow Light Snow
7:06 PM 33.8 °F 28.6 °F 30.2 °F 87% 29.98 in 3.0 mi NW 5.8 mph - 0.00 in Snow Light Snow
7:18 PM 33.8 °F 26.4 °F 30.2 °F 87% 29.97 in 10.0 mi NW 9.2 mph - 0.00 in   Overcast
7:40 PM 33.8 °F 29.6 °F 28.4 °F 81% 29.97 in 10.0 mi NW 4.6 mph - 0.00 in   Overcast
7:53 PM 33.1 °F 25.5 °F 28.0 °F 82% 30.01 in 10.0 mi NW 9.2 mph - 0.00 in   Overcast
8:53 PM 33.1 °F 25.5 °F 27.0 °F 78% 30.00 in 7.0 mi NNW 9.2 mph - 0.00 in Snow Light Snow
9:05 PM 32.0 °F 22.1 °F 24.8 °F 75% 29.98 in 2.0 mi NNW 13.8 mph 20.7 mph 0.00 in Snow Light Snow
9:14 PM 30.2 °F 21.3 °F 24.8 °F 80% 29.98 in 5.0 mi North 10.4 mph 20.7 mph 0.00 in Snow Light Snow
9:33 PM 30.2 °F 24.3 °F 23.0 °F 75% 29.98 in 10.0 mi NW 5.8 mph 17.3 mph 0.00 in   Mostly Cloudy
9:53 PM 30.0 °F 20.0 °F 19.0 °F 64% 30.01 in 10.0 mi NNW 12.7 mph - 0.00 in   Mostly Cloudy
10:53 PM 28.0 °F 18.6 °F 15.1 °F 58% 30.01 in 10.0 mi NNW 10.4 mph - N/A   Clear
11:53 PM 26.1 °F 15.6 °F 12.9 °F 58% 30.00 in 10.0 mi NW 11.5 mph 21.9 mph N/A   Clear